Wind_Speed
18 19 21 23 25 27 27 25 16 14 15 12 10 10 15 13 15 9 18 20 24 20 13 15 11 9 7 11 5 9 16 10 9 24 16 11 13 12 9 6 3 11 2 4
19 20 21 22 24 25 24 18 11 11 10 8 10 16 17 17 20 13 14 15 12 8 10 5 12 17 5 7 5 5 0 2 2 1 7 4 4 10 14 14 15 6 3 3
19 20 20 21 22 22 19 13 4 5 5 7 6 8 9 9 10 13 12 16 18 16 21 14 10 17 13 5 4 9 1 5 3 1 5 10 13 14 15 17 6 3 10 8
18 19 21 19 19 18 14 10 6 6 4 3 8 12 8 9 11 7 5 4 6 6 9 18 20 22 21 12 6 6 4 3 5 7 7 10 10 12 15 17 19 10 5 8
18 20 19 17 16 12 11 10 9 7 10 12 12 12 9 12 7 15 8 15 19 5 11 12 9 13 24 12 10 2 7 5 4 8 7 10 18 17 18 18 20 24 18 24
18 18 16 15 13 12 12 12 11 9 14 13 12 11 9 12 16 5 11 17 21 9 8 14 16 16 13 9 7 8 7 4 2 2 10 18 12 2 12 12 14 18 22 20
17 16 15 12 13 13 15 14 15 17 19 17 14 13 12 12 9 16 14 13 15 15 12 15 21 18 13 12 12 10 7 5 3 3 10 1 5 9 13 15 15 14 14 17
16 15 14 13 14 13 12 16 16 16 20 19 16 13 9 8 9 13 15 11 16 20 13 18 12 17 14 16 9 11 14 11 4 2 4 13 19 2 6 10 16 15 13 16
16 14 12 10 8 12 14 13 15 18 18 18 13 10 10 11 12 11 9 10 18 18 17 17 11 8 8 6 7 11 13 15 9 5 2 4 4 5 9 15 21 9 10 16
15 14 13 12 11 11 14 14 14 16 20 21 18 13 11 10 10 14 13 12 13 13 7 7 9 7 10 5 4 5 4 7 17 19 9 11 22 23 21 10 10 19 17 13
16 17 16 16 16 16 12 10 16 17 20 19 20 17 12 10 9 12 13 14 9 11 9 5 3 2 4 4 5 4 3 4 9 11 7 10 12 9 10 12 19 19 11 8
18 17 18 19 18 16 15 14 13 16 18 17 13 14 15 13 13 11 13 12 13 9 10 12 2 2 1 4 2 7 5 10 7 10 7 11 8 3 2 8 15 18 11 12
18 18 20 22 20 19 20 19 16 16 21 18 14 11 14 16 11 12 16 7 10 3 6 11 3 3 4 3 3 8 9 13 14 9 20 19 17 12 8 9 15 13 13 6
18 17 18 19 20 21 23 27 23 19 24 25 18 14 8 16 17 12 10 7 8 7 5 10 5 5 3 6 7 16 13 14 5 4 3 8 9 8 8 9 12 11 7 11
18 16 16 16 17 20 25 30 30 26 25 16 6 13 14 12 11 11 9 7 9 10 6 8 6 6 9 10 11 8 5 1 3 7 9 9 8 7 8 8 7 6 10 7
16 18 17 17 12 19 27 35 37 36 27 31 15 8 10 13 11 11 12 11 11 14 8 10 4 4 9 8 9 6 4 5 12 11 11 9 9 6 5 4 2 1 4 5
13 11 15 18 18 20 21 26 30 25 22 20 10 12 10 13 14 15 15 14 17 11 12 13 10 3 7 10 12 8 6 7 15 12 10 5 3 2 2 2 1 4 7 7
15 13 14 15 16 15 24 26 15 14 18 14 6 6 8 10 12 15 17 17 17 16 15 13 9 7 6 7 8 6 8 6 4 2 3 2 3 5 5 6 8 8 10 14
16 19 18 12 15 16 13 10 6 13 17 9 11 9 6 10 11 14 13 15 14 12 15 15 9 9 9 8 10 8 8 9 7 6 6 8 9 10 12 14 14 14 13 13
14 19 17 14 15 13 9 11 14 16 18 18 14 10 11 5 11 13 12 9 12 6 11 12 13 19 17 13 12 10 12 12 11 11 13 14 14 13 14 16 17 17 15 14
14 20 21 23 21 19 11 9 9 9 6 9 6 8 10 7 6 14 12 5 6 6 5 12 5 11 15 17 16 16 16 17 18 19 20 20 19 18 18 16 15 15 14 14
15 22 28 31 22 8 5 8 6 6 5 4 5 4 6 8 8 7 15 6 7 3 5 7 4 9 9 10 13 14 15 15 15 14 12 13 12 13 14 15 15 14 14 14
22 24 30 21 10 7 7 7 7 6 6 7 5 4 7 7 2 3 5 5 5 2 6 4 7 7 5 7 8 9 10 11 13 14 14 14 14 14 15 14 13 13 12 10
26 21 17 10 7 8 9 13 9 8 8 8 5 9 4 5 5 4 4 3 5 4 4 5 5 5 7 7 7 8 10 11 12 12 12 12 11 10 9 9 9 9 8 8
16 9 8 8 7 7 11 10 10 8 7 11 8 6 3 6 3 3 3 5 4 5 5 7 6 6 6 7 8 8 7 6 5 5 5 5 5 6 6 6 7 7 7 7
15 8 9 6 8 7 13 10 14 11 11 11 8 6 2 4 3 3 4 3 5 5 7 7 7 7 8 9 7 5 3 2 2 2 3 3 4 4 3 3 4 6 8 9
8 6 6 4 8 8 12 12 16 17 14 13 7 5 5 3 3 3 4 5 7 7 7 9 10 10 8 7 5 4 2 1 3 4 4 3 3 3 4 7 9 11 13 15
Wind_Direction
284 289 294 296 298 300 301 304 310 297 294 307 297 303 299 289 290 288 270 271 279 292 292 287 270 254 343 318 184 231 197 236 253 250 261 272 274 277 273 257 225 209 230 293
285 290 294 298 298 297 299 302 306 284 279 291 294 286 318 304 291 296 273 272 252 218 251 300 257 246 215 151 248 233 119 256 313 345 83 135 229 269 264 282 274 245 191 244
284 290 295 295 293 294 298 299 300 255 248 281 300 296 288 325 319 309 272 273 268 256 254 246 252 245 257 239 146 213 264 172 160 189 310 319 307 299 303 310 258 267 237 246
287 291 291 289 289 286 287 284 277 253 241 208 301 317 326 333 328 319 335 273 237 261 258 249 256 253 276 284 286 243 235 250 275 287 306 309 316 320 299 289 299 292 263 288
286 285 287 289 285 273 260 262 256 265 270 277 292 303 291 305 295 322 280 344 346 265 261 243 246 240 245 291 261 230 213 229 256 297 314 297 307 312 294 281 273 270 282 295
281 282 281 280 270 260 255 253 247 261 278 282 289 299 303 283 301 291 318 331 330 312 251 261 247 243 237 244 265 224 236 215 281 283 317 319 311 224 334 320 289 276 277 304
276 277 281 267 263 250 252 250 240 245 265 274 286 296 292 284 283 290 301 302 310 310 278 284 247 242 240 247 236 244 237 250 258 280 326 273 273 301 306 299 312 275 264 286
271 270 266 256 256 245 247 249 249 254 265 274 278 296 287 279 284 294 293 293 294 303 281 285 244 234 239 246 249 251 250 251 256 247 229 282 293 289 318 319 311 303 258 254
261 258 247 244 254 245 243 250 254 257 269 274 278 279 273 290 308 299 294 282 292 298 270 244 193 188 200 211 205 237 238 233 232 208 220 242 224 214 327 329 305 289 298 256
254 249 239 233 230 244 241 246 252 257 261 265 272 273 274 284 299 298 322 313 309 290 328 305 135 165 179 190 174 176 153 213 228 238 242 262 263 258 281 290 280 312 307 280
248 245 233 224 221 223 237 238 247 257 266 268 268 266 264 275 291 302 298 328 339 3 10 11 39 120 182 227 205 194 209 210 219 224 231 258 272 294 261 273 297 314 320 259
246 237 223 216 215 219 237 249 249 259 265 275 273 265 262 265 272 275 282 309 325 334 1 5 322 316 233 243 250 230 244 229 239 226 233 254 258 306 335 327 282 293 309 233
238 230 223 216 219 226 240 252 251 253 269 289 293 281 240 240 246 261 268 299 309 357 353 350 330 281 314 290 267 278 271 259 263 235 232 245 266 282 299 297 295 289 294 325
229 225 223 224 232 235 238 251 256 246 257 273 287 268 266 238 249 260 248 246 300 330 353 351 347 17 326 292 265 304 275 276 240 304 266 246 234 258 265 264 278 248 234 199
223 226 227 227 237 251 237 239 253 249 241 250 305 296 231 238 248 233 222 229 255 280 308 305 313 1 345 342 322 262 245 359 219 194 201 222 230 203 244 238 244 279 262 236
223 228 222 222 263 267 240 238 241 238 243 250 253 274 230 230 225 212 214 227 232 242 237 261 293 352 331 315 302 233 98 40 122 109 103 117 107 116 108 110 147 268 262 267
210 217 219 238 253 244 256 236 236 236 229 226 255 250 247 233 226 220 225 230 235 239 248 257 271 304 296 303 272 237 123 123 140 132 108 86 62 42 55 118 242 275 273 276
201 229 232 246 253 239 232 227 226 195 204 222 218 249 226 227 224 220 224 231 235 237 241 257 275 277 242 269 290 184 151 124 129 176 259 283 276 258 276 293 289 285 283 275
206 219 220 217 191 195 191 178 181 185 193 194 214 224 264 216 219 216 222 229 227 238 247 253 258 255 229 247 235 231 214 201 215 243 270 284 286 275 279 292 295 300 295 290
198 183 179 165 166 157 168 160 165 177 200 217 234 220 235 254 185 204 205 217 219 245 253 242 240 241 244 246 250 241 235 254 267 273 279 287 288 281 282 286 288 292 289 288
201 196 173 153 151 148 139 146 161 186 220 234 247 237 251 208 176 205 199 222 208 220 226 186 247 252 255 256 261 259 263 269 275 279 281 279 274 272 276 283 282 284 286 285
199 181 162 149 152 154 163 165 183 202 213 222 230 221 179 158 137 185 190 176 196 220 198 194 249 268 263 257 258 260 263 270 276 274 272 278 282 285 284 285 287 287 286 285
165 158 155 166 175 198 177 191 194 195 187 198 193 188 155 135 111 129 166 179 205 211 189 225 248 267 270 261 257 258 258 261 264 268 269 269 269 271 273 273 276 278 277 275
161 150 161 173 183 193 200 195 194 185 182 171 171 158 164 169 164 156 178 183 183 208 231 233 244 247 251 253 260 265 268 268 265 260 256 255 258 261 264 265 261 258 253 249
150 147 176 206 191 198 197 196 197 182 177 153 184 180 188 176 195 212 192 189 217 226 234 243 246 261 259 266 279 284 278 266 257 252 241 234 229 221 213 214 215 216 219 226
159 162 190 217 211 205 191 181 189 173 155 173 184 190 190 212 241 232 213 209 221 243 247 251 263 274 292 304 307 302 290 266 221 200 188 175 172 176 189 218 255 272 278 280
179 193 228 225 208 204 193 188 183 173 183 195 198 211 214 225 221 227 236 245 263 265 272 284 285 290 298 301 307 313 335 80 121 132 143 161 194 247 277 287 291 294 297 297
Height
2999 3000 2998 2998 2996 2994 2993 2992 2992 2991 2990 2993 2992 2992 2992 2994 2993 2996 2994 2993 2993 2994 2994 2993 2993 2993 2992 2992 2991 2991 2991 2993 2991 2992 2993 2993 2993 2992 2992 2993 2989 2989 2989 2985
2994 2995 2993 2991 2990 2989 2989 2988 2988 2988 2989 2990 2991 2991 2991 2990 2990 2991 2990 2990 2991 2991 2991 2992 2989 2988 2988 2987 2990 2989 2989 2989 2990 2989 2991 2991 2990 2990 2990 2990 2988 2985 2987 2984
2990 2990 2988 2987 2986 2984 2984 2984 2986 2987 2987 2989 2989 2989 2989 2988 2987 2986 2986 2985 2986 2988 2987 2988 2987 2985 2985 2986 2984 2990 2988 2987 2988 2991 2991 2992 2989 2988 2988 2986 2985 2983 2983 2982
2984 2983 2983 2983 2981 2980 2981 2981 2983 2984 2987 2988 2989 2988 2989 2987 2986 2984 2983 2983 2983 2983 2983 2984 2983 2984 2983 2983 2982 2985 2985 2986 2987 2987 2987 2987 2987 2985 2985 2984 2984 2983 2982 2981
2979 2979 2978 2976 2975 2975 2977 2978 2981 2983 2984 2986 2987 2987 2988 2987 2986 2984 2983 2980 2978 2978 2980 2981 2980 2982 2983 2981 2981 2978 2984 2984 2986 2985 2984 2984 2983 2983 2980 2980 2979 2978 2978 2977
2974 2973 2973 2973 2972 2972 2973 2975 2978 2980 2981 2982 2985 2986 2986 2985 2984 2982 2981 2979 2976 2976 2977 2976 2977 2978 2979 2980 2980 2982 2983 2982 2983 2982 2982 2981 2980 2977 2977 2976 2975 2975 2974 2975
2968 2968 2968 2968 2969 2970 2971 2973 2976 2977 2978 2979 2982 2983 2983 2982 2982 2980 2980 2979 2976 2975 2973 2972 2973 2975 2975 2976 2979 2980 2980 2981 2981 2980 2980 2983 2978 2976 2976 2975 2973 2972 2972 2973
2963 2963 2964 2964 2965 2966 2968 2970 2973 2974 2974 2977 2979 2980 2979 2980 2979 2978 2976 2976 2974 2970 2969 2968 2968 2970 2973 2973 2975 2977 2978 2977 2978 2979 2979 2979 2975 2975 2974 2973 2971 2970 2969 2970
2958 2959 2959 2961 2963 2964 2965 2968 2970 2971 2972 2973 2975 2977 2977 2977 2976 2975 2973 2973 2970 2966 2964 2962 2962 2964 2968 2970 2971 2971 2971 2974 2978 2978 2979 2978 2973 2972 2972 2971 2968 2967 2967 2967
2953 2954 2956 2958 2960 2961 2962 2965 2967 2968 2968 2970 2972 2973 2975 2975 2975 2973 2971 2970 2968 2964 2958 2955 2957 2963 2966 2968 2967 2970 2971 2972 2974 2976 2976 2972 2970 2969 2970 2971 2971 2965 2964 2962
2948 2949 2952 2954 2956 2958 2960 2963 2963 2965 2965 2967 2969 2970 2972 2973 2973 2972 2972 2971 2968 2965 2961 2961 2961 2962 2964 2966 2967 2968 2969 2971 2971 2972 2973 2971 2964 2966 2968 2968 2965 2963 2960 2959
2942 2944 2947 2950 2953 2955 2957 2958 2961 2963 2963 2964 2965 2966 2969 2970 2970 2971 2971 2972 2970 2969 2967 2965 2964 2964 2965 2966 2967 2967 2969 2969 2969 2969 2967 2964 2964 2965 2964 2964 2963 2962 2962 2959
2937 2940 2943 2946 2949 2952 2954 2955 2958 2960 2960 2961 2960 2962 2965 2965 2967 2969 2969 2971 2970 2969 2969 2966 2965 2965 2966 2966 2966 2966 2966 2965 2961 2959 2961 2962 2961 2962 2963 2963 2962 2961 2961 2960
2933 2936 2940 2943 2946 2948 2950 2950 2954 2958 2958 2958 2961 2960 2961 2961 2962 2965 2967 2969 2969 2968 2967 2966 2966 2966 2966 2965 2965 2965 2964 2961 2958 2959 2959 2959 2960 2961 2961 2961 2960 2959 2959 2960
2929 2933 2936 2939 2941 2943 2945 2947 2948 2952 2957 2955 2956 2956 2958 2958 2959 2962 2964 2966 2967 2967 2966 2967 2967 2966 2965 2964 2962 2961 2959 2957 2957 2958 2959 2959 2959 2960 2961 2960 2960 2960 2960 2960
2926 2929 2931 2934 2936 2936 2938 2937 2941 2945 2949 2951 2954 2956 2955 2955 2957 2960 2962 2963 2965 2966 2967 2965 2964 2965 2966 2963 2961 2959 2956 2956 2955 2958 2958 2959 2959 2959 2959 2959 2959 2960 2960 2960
2922 2925 2928 2930 2932 2933 2934 2933 2937 2941 2946 2950 2953 2953 2953 2953 2955 2957 2959 2961 2962 2963 2963 2962 2963 2964 2963 2961 2959 2958 2957 2958 2958 2958 2959 2960 2960 2960 2960 2960 2960 2960 2960 2959
2919 2922 2924 2926 2927 2928 2928 2930 2934 2939 2945 2949 2951 2951 2951 2951 2953 2955 2956 2957 2958 2960 2960 2960 2961 2962 2961 2959 2956 2956 2958 2958 2959 2959 2959 2959 2960 2960 2960 2959 2959 2958 2957 2958
2916 2918 2921 2923 2924 2926 2928 2932 2935 2938 2946 2947 2948 2949 2949 2949 2950 2952 2954 2955 2956 2958 2956 2957 2960 2958 2958 2957 2957 2957 2957 2958 2958 2958 2958 2958 2958 2958 2958 2957 2956 2954 2954 2954
2914 2916 2919 2922 2926 2929 2931 2934 2936 2939 2942 2943 2944 2946 2946 2948 2947 2949 2953 2953 2954 2954 2953 2954 2954 2953 2953 2954 2955 2955 2955 2955 2956 2957 2957 2956 2955 2955 2955 2953 2952 2951 2950 2950
2912 2914 2918 2923 2927 2931 2933 2935 2938 2940 2940 2939 2940 2941 2942 2945 2945 2947 2950 2950 2951 2950 2951 2952 2950 2947 2949 2950 2951 2953 2953 2953 2953 2952 2952 2952 2952 2951 2950 2949 2949 2948 2947 2946
2910 2914 2920 2925 2930 2932 2933 2934 2936 2936 2937 2936 2938 2938 2939 2941 2942 2943 2946 2947 2948 2947 2948 2949 2946 2947 2947 2947 2947 2948 2948 2948 2948 2948 2949 2949 2948 2947 2947 2946 2945 2944 2943 2942
2911 2918 2922 2927 2930 2930 2931 2932 2933 2933 2934 2936 2937 2938 2938 2940 2942 2943 2944 2945 2946 2947 2946 2946 2945 2944 2944 2945 2945 2945 2945 2945 2945 2945 2944 2944 2943 2943 2943 2942 2941 2940 2940 2940
2913 2918 2921 2924 2925 2925 2926 2928 2931 2933 2934 2935 2938 2939 2939 2940 2941 2942 2943 2944 2944 2944 2944 2943 2943 2943 2943 2943 2944 2944 2943 2942 2941 2941 2941 2940 2940 2939 2939 2939 2939 2939 2939 2939
2914 2918 2921 2920 2922 2923 2926 2928 2931 2933 2934 2936 2938 2939 2940 2940 2941 2941 2942 2942 2942 2941 2940 2940 2941 2941 2942 2942 2941 2940 2940 2939 2938 2938 2938 2939 2939 2939 2940 2940 2940 2940 2940 2940
2915 2916 2918 2919 2921 2923 2925 2927 2930 2932 2934 2936 2938 2939 2940 2940 2940 2940 2940 2940 2939 2939 2939 2939 2939 2939 2938 2938 2937 2938 2938 2938 2938 2938 2939 2939 2939 2939 2940 2940 2939 2939 2939 2938
2914 2916 2917 2918 2920 2922 2924 2925 2928 2931 2935 2936 2938 2938 2938 2939 2939 2938 2938 2938 2938 2938 2938 2937 2937 2937 2936 2935 2935 2935 2935 2936 2937 2938 2939 2939 2939 2939 2938 2938 2937 2936 2935 2934